GW6795 Weather Reports


Display with metric or nautical units.
time (UTC)temp
F
wind
direction
speed
MPH
gust
MPH
rain 1hr
in
rain 24hr
in
rain mn
in
humidity
%
barometer
mb
20260502214047 61 293 2.0 6.0 0.00 0.00 0.02 80 1014.9
20260502213547 62 273 4.0 6.0 0.00 0.00 0.02 79 1014.9
20260502213047 62 290 3.0 4.0 0.00 0.00 0.02 80 1014.9
20260502212547 62 286 5.0 6.0 0.00 0.00 0.02 79 1015.2
20260502212046 63 310 5.0 6.0 0.00 0.00 0.02 78 1015.2
20260502211547 64 327 1.0 9.0 0.00 0.00 0.02 75 1015.2
20260502211046 64 322 3.0 6.0 0.00 0.00 0.02 74 1014.9
20260502210546 64 302 9.0 9.0 0.00 0.00 0.02 73 1014.9
20260502210046 64 276 4.0 5.0 0.00 0.00 0.02 74 1014.9
20260502205546 64 235 5.0 5.0 0.00 0.00 0.02 73 1014.2
20260502205047 64 289 2.0 4.0 0.00 0.00 0.02 73 1013.9
20260502204546 64 312 2.0 2.0 0.00 0.00 0.02 73 1013.5
20260502204046 64 315 2.0 3.0 0.00 0.00 0.02 73 1013.5
20260502203546 64 308 2.0 3.0 0.00 0.00 0.02 72 1013.5
20260502203046 64 322 2.0 4.0 0.00 0.00 0.02 72 1013.5
20260502202546 64 298 2.0 3.0 0.00 0.00 0.02 71 1013.9
20260502202046 65 270 1.0 3.0 0.00 0.00 0.02 71 1013.9
20260502201546 65 263 4.0 4.0 0.00 0.00 0.02 70 1013.9
20260502201046 65 279 3.0 3.0 0.00 0.00 0.02 70 1013.5
20260502200546 65 297 2.0 3.0 0.00 0.00 0.02 69 1013.9
20260502200047 66 283 3.0 4.0 0.00 0.00 0.02 67 1013.9
20260502195546 66 338 4.0 4.0 0.00 0.00 0.02 66 1013.9
20260502195048 66 298 2.0 4.0 0.00 0.00 0.02 65 1013.9
20260502194546 67 299 2.0 4.0 0.00 0.00 0.02 65 1013.9
20260502194046 67 340 4.0 5.0 0.00 0.00 0.02 64 1013.9
20260502193546 68 300 2.0 7.0 0.00 0.00 0.02 62 1014.2
20260502193046 68 324 0.0 7.0 0.00 0.00 0.02 63 1014.2
20260502192547 68 327 3.0 8.0 0.00 0.00 0.02 63 1014.2
20260502192047 68 287 1.0 7.0 0.00 0.00 0.02 65 1014.2
20260502191547 69 298 3.0 5.0 0.02 0.00 0.02 65 1014.2
20260502191046 70 331 5.0 7.0 0.14 0.00 0.02 65 1014.2
20260502190546 71 334 3.0 4.0 0.09 0.00 0.02 64 1014.2
20260502190047 72 225 2.0 5.0 0.00 0.00 0.00 56 1014.2
20260502185546 73 343 3.0 5.0 0.00 0.00 0.00 54 1014.2
20260502185046 73 5 5.0 5.0 0.00 0.00 0.00 52 1013.9
20260502184547 73 308 2.0 3.0 0.00 0.00 0.00 52 1013.9
20260502184046 73 301 2.0 3.0 0.00 0.00 0.00 52 1013.9
20260502183546 73 317 2.0 5.0 0.00 0.00 0.00 52 1013.9
20260502183046 74 348 3.0 4.0 0.00 0.00 0.00 51 1013.9
20260502182547 74 343 4.0 4.0 0.00 0.00 0.00 51 1013.9
20260502182046 74 325 3.0 5.0 0.00 0.00 0.00 50 1013.9
20260502181546 75 319 5.0 5.0 0.00 0.00 0.00 50 1013.9
20260502181046 75 315 2.0 3.0 0.00 0.00 0.00 50 1013.9
20260502180547 75 328 2.0 4.0 0.00 0.00 0.00 50 1013.9
20260502164046 77 309 2.0 4.0 0.00 0.00 0.00 45 1014.6
20260502163546 77 249 3.0 3.0 0.00 0.00 0.00 45 1014.6
20260502163047 77 300 2.0 3.0 0.00 0.00 0.00 45 1014.6
20260502162546 77 333 2.0 5.0 0.00 0.00 0.00 44 1014.6
20260502162046 77 295 2.0 5.0 0.00 0.00 0.00 45 1014.9
20260502161547 77 272 4.0 5.0 0.00 0.00 0.00 45 1014.6
20260502161046 77 191 0.0 6.0 0.00 0.00 0.00 45 1014.9
20260502160546 78 275 3.0 3.0 0.00 0.00 0.00 44 1014.9
20260502152047 76 235 3.0 3.0 0.00 0.00 0.00 46 1015.6
20260502151546 76 272 2.0 3.0 0.00 0.00 0.00 47 1015.6
20260502151046 76 265 3.0 5.0 0.00 0.00 0.00 47 1015.6
20260502150547 76 293 2.0 5.0 0.00 0.00 0.00 47 1015.6
20260502130546 76 251 3.0 5.0 0.00 0.00 0.00 48 1017.3
20260502123548 77 234 5.0 7.0 0.00 0.00 0.00 47 1017.6
20260502123046 76 330 3.0 9.0 0.00 0.00 0.00 48 1017.3
20260502122546 77 320 4.0 6.0 0.00 0.00 0.00 47 1017.6
20260502122047 77 299 1.0 5.0 0.00 0.00 0.00 47 1017.6
20260502121547 77 283 1.0 5.0 0.00 0.00 0.00 47 1017.9
20260502121047 78 335 3.0 6.0 0.00 0.00 0.00 47 1017.6
20260502120547 77 273 3.0 8.0 0.00 0.00 0.00 47 1017.6
20260502115546 77 235 3.0 5.0 0.00 0.00 0.00 46 1017.9
20260502115046 78 306 2.0 5.0 0.00 0.00 0.00 46 1017.9
20260502114546 78 309 2.0 5.0 0.00 0.00 0.00 46 1017.9
20260502114047 76 295 2.0 4.0 0.00 0.00 0.00 47 1017.9
20260502113546 75 243 4.0 6.0 0.00 0.00 0.00 48 1017.9
20260502113046 75 92 2.0 7.0 0.00 0.00 0.00 48 1017.9
20260502112547 76 230 0.0 6.0 0.00 0.00 0.00 47 1018.3
20260502112051 76 232 2.0 7.0 0.00 0.00 0.00 47 1018.3
20260502111547 77 281 1.0 4.0 0.00 0.00 0.00 47 1017.9
20260502111046 76 280 1.0 7.0 0.00 0.00 0.00 47 1017.9
20260502110547 76 221 2.0 5.0 0.00 0.00 0.00 47 1018.3
20260502110046 75 267 2.0 3.0 0.00 0.00 0.00 48 1018.3
20260502105546 75 319 2.0 3.0 0.00 0.00 0.00 48 1018.3
20260502105047 75 273 2.0 5.0 0.00 0.00 0.00 48 1018.6
20260502104546 75 212 2.0 6.0 0.00 0.00 0.00 48 1018.3
20260502104046 76 300 3.0 6.0 0.00 0.00 0.00 47 1018.3
20260502103546 76 287 3.0 5.0 0.00 0.00 0.00 47 1018.3
20260502103046 76 249 1.0 9.0 0.00 0.00 0.00 47 1018.6
20260502102546 77 264 2.0 5.0 0.00 0.00 0.00 46 1018.6
20260502102046 75 16 3.0 9.0 0.00 0.00 0.00 47 1018.6
20260502101546 74 317 3.0 7.0 0.00 0.00 0.00 48 1018.6
20260502101046 75 236 4.0 4.0 0.00 0.00 0.00 48 1019.0
20260502100546 74 297 3.0 5.0 0.00 0.00 0.00 47 1018.6
20260502091047 71 337 0.0 6.0 0.00 0.00 0.00 49 1019.0
20260502090546 71 303 3.0 5.0 0.00 0.00 0.00 49 1019.0
20260502071047 63 238 4.0 7.0 0.00 0.00 0.00 52 1019.6
20260502070546 62 244 5.0 7.0 0.00 0.00 0.00 52 1019.6
20260502070046 62 226 1.0 5.0 0.00 0.00 0.00 54 1019.6
20260502065547 61 286 1.0 3.0 0.00 0.00 0.00 57 1019.6
20260502065047 59 265 3.0 4.0 0.00 0.00 0.00 60 1019.6
20260502064548 58 298 3.0 5.0 0.00 0.00 0.00 63 1019.6
20260502064046 58 291 2.0 3.0 0.00 0.00 0.00 62 1019.6
20260502063546 58 270 2.0 4.0 0.00 0.00 0.00 63 1019.6
20260502063047 58 286 3.0 3.0 0.00 0.00 0.00 64 1019.6
20260502062546 57 253 2.0 5.0 0.00 0.00 0.00 62 1019.3
20260502062046 57 289 2.0 3.0 0.00 0.00 0.00 63 1019.3
20260502061546 57 273 3.0 4.0 0.00 0.00 0.00 61 1019.6
20260502061046 57 280 2.0 3.0 0.00 0.00 0.00 60 1019.6
20260502060546 58 261 3.0 7.0 0.00 0.00 0.00 57 1019.3
20260502060046 58 271 2.0 6.0 0.00 0.00 0.00 54 1019.3
20260502055111 58 234 5.0 5.0 0.00 0.00 0.00 53 1019.6
20260502054547 57 265 2.0 4.0 0.00 0.00 0.00 53 1019.3
20260502054046 57 266 3.0 5.0 0.00 0.00 0.00 52 1019.3
20260502053546 57 253 3.0 5.0 0.00 0.00 0.00 52 1019.3
20260502053046 57 255 0.0 4.0 0.00 0.00 0.00 52 1019.6
20260502052546 57 240 4.0 6.0 0.00 0.00 0.00 51 1019.3
20260502052047 57 281 2.0 5.0 0.00 0.00 0.00 51 1019.3
20260502051546 56 272 3.0 4.0 0.00 0.00 0.00 52 1019.3
20260502051046 56 276 3.0 5.0 0.00 0.00 0.00 52 1019.3
20260502050546 56 264 4.0 4.0 0.00 0.00 0.00 52 1019.3
20260502050046 55 282 2.0 4.0 0.00 0.00 0.00 53 1019.3
20260502045546 54 287 4.0 5.0 0.00 0.00 0.00 54 1019.3
20260502045046 54 251 2.0 4.0 0.00 0.00 0.00 54 1019.3
20260502044546 54 327 3.0 3.0 0.00 0.00 0.00 55 1019.0
20260502044046 53 287 2.0 3.0 0.00 0.00 0.00 56 1019.3
20260502043546 53 277 3.0 5.0 0.00 0.00 0.00 57 1019.3
20260502043046 53 269 3.0 5.0 0.00 0.00 0.00 57 1019.6
20260502042546 52 290 1.0 3.0 0.00 0.00 0.00 58 1019.0
20260502042046 52 276 3.0 3.0 0.00 0.00 0.00 58 1019.3
20260502041547 52 313 2.0 4.0 0.00 0.00 0.00 59 1019.3
20260502041047 52 314 3.0 4.0 0.00 0.00 0.00 59 1019.3
20260502040546 51 255 3.0 5.0 0.00 0.00 0.00 60 1019.3
20260502040046 51 326 3.0 4.0 0.00 0.00 0.00 59 1019.3
20260502035546 51 318 3.0 3.0 0.00 0.00 0.00 59 1019.3
20260502035046 51 263 2.0 3.0 0.00 0.00 0.00 60 1019.6
20260502034547 51 267 3.0 4.0 0.00 0.00 0.00 60 1019.6
20260502034047 51 305 2.0 3.0 0.00 0.00 0.00 60 1019.6
20260502033547 51 313 2.0 4.0 0.00 0.00 0.00 60 1019.6
20260502033046 51 277 3.0 4.0 0.00 0.00 0.00 60 1019.6
20260502032546 51 274 3.0 3.0 0.00 0.00 0.00 60 1019.6
20260502032046 51 336 3.0 3.0 0.00 0.00 0.00 60 1019.6
20260502031546 51 305 3.0 3.0 0.00 0.00 0.00 61 1019.6
20260502031046 51 296 3.0 3.0 0.00 0.00 0.00 61 1019.6
20260502030547 51 316 2.0 3.0 0.00 0.00 0.00 61 1019.6
20260502030046 51 305 2.0 3.0 0.00 0.00 0.00 61 1019.6
20260502025547 51 300 3.0 3.0 0.00 0.00 0.00 61 1020.0
20260502025046 51 288 2.0 3.0 0.00 0.00 0.00 61 1020.0
20260502024547 51 300 2.0 3.0 0.00 0.00 0.00 60 1019.6
20260502024046 51 292 2.0 3.0 0.00 0.00 0.00 60 1019.6
20260502023546 51 291 2.0 3.0 0.00 0.00 0.00 60 1019.6
20260502023046 51 281 2.0 3.0 0.00 0.00 0.00 59 1019.6
20260502022547 52 300 3.0 3.0 0.00 0.00 0.00 58 1019.6
20260502022047 52 309 3.0 3.0 0.00 0.00 0.00 58 1020.0
20260502021546 52 303 2.0 3.0 0.00 0.00 0.00 58 1019.6
20260502021047 52 305 2.0 3.0 0.00 0.00 0.00 59 1019.6
20260502020547 52 286 3.0 3.0 0.00 0.00 0.00 59 1020.0
20260502020047 52 294 2.0 3.0 0.00 0.00 0.00 59 1020.0
20260502015546 51 298 2.0 3.0 0.00 0.00 0.00 60 1020.3
20260502015047 51 299 2.0 3.0 0.00 0.00 0.00 60 1020.3
20260502014547 52 291 2.0 3.0 0.00 0.00 0.00 59 1020.3
20260502014046 52 298 2.0 3.0 0.00 0.00 0.00 59 1020.3
20260502013546 53 286 3.0 3.0 0.00 0.00 0.00 58 1020.3
20260502013047 52 283 3.0 3.0 0.00 0.00 0.00 58 1020.0
20260502012546 52 297 2.0 3.0 0.00 0.00 0.00 58 1020.3
20260502012047 52 305 2.0 3.0 0.00 0.00 0.00 59 1020.3
20260502011546 53 290 3.0 3.0 0.00 0.00 0.00 59 1020.3
20260502011046 53 288 3.0 3.0 0.00 0.00 0.00 58 1020.3
20260502010547 53 297 2.0 3.0 0.00 0.00 0.00 57 1020.7
20260502010046 54 284 2.0 3.0 0.00 0.00 0.00 56 1020.3
20260502005546 54 287 2.0 3.0 0.00 0.00 0.00 56 1020.7
20260502005046 54 274 3.0 3.0 0.00 0.00 0.00 55 1020.3
20260502004546 54 294 2.0 3.0 0.00 0.00 0.00 54 1020.3
20260502004046 54 314 2.0 3.0 0.00 0.00 0.00 54 1020.7
20260502003547 54 305 2.0 3.0 0.00 0.00 0.00 54 1020.7
20260502003046 55 307 2.0 3.0 0.00 0.00 0.00 53 1020.7
20260502002548 55 308 2.0 3.0 0.00 0.00 0.00 53 1020.7
20260502002046 55 305 2.0 3.0 0.00 0.00 0.00 53 1020.7
20260502001547 55 302 2.0 3.0 0.00 0.00 0.00 53 1020.7
20260502001046 55 286 2.0 3.0 0.00 0.00 0.00 54 1020.7
20260502000548 55 294 3.0 3.0 0.00 0.00 0.00 53 1020.7
20260502000046 55 302 2.0 3.0 0.00 0.00 0.00 53 1021.0
20260501235546 55 305 3.0 3.0 0.00 0.00 0.00 53 1021.0
20260501235046 56 302 2.0 3.0 0.00 0.00 0.00 53 1021.0
20260501234546 56 291 2.0 2.0 0.00 0.00 0.00 53 1021.3
20260501234048 56 273 3.0 3.0 0.00 0.00 0.00 52 1021.0
20260501233546 57 309 1.0 3.0 0.00 0.00 0.00 52 1021.0
20260501233046 57 300 2.0 4.0 0.00 0.00 0.00 52 1021.3
20260501232547 57 323 2.0 3.0 0.00 0.00 0.00 52 1021.0
20260501232047 57 301 2.0 3.0 0.00 0.00 0.00 51 1021.3
20260501231546 57 299 2.0 3.0 0.00 0.00 0.00 51 1021.3
20260501231046 57 312 3.0 3.0 0.00 0.00 0.00 52 1021.3
20260501230547 57 283 2.0 3.0 0.00 0.00 0.00 51 1021.3
20260501230046 57 300 2.0 3.0 0.00 0.00 0.00 51 1021.3
20260501225546 58 296 2.0 3.0 0.00 0.00 0.00 50 1021.3
20260501225046 58 310 2.0 3.0 0.00 0.00 0.00 49 1021.3
20260501224546 58 316 2.0 4.0 0.00 0.00 0.00 49 1021.3
20260501224047 58 289 2.0 4.0 0.00 0.00 0.00 49 1021.3
20260501223546 59 316 3.0 3.0 0.00 0.00 0.00 49 1021.3
20260501223046 59 316 2.0 3.0 0.00 0.00 0.00 48 1021.3
20260501222547 59 322 2.0 3.0 0.00 0.00 0.00 48 1021.3
20260501222047 59 324 3.0 3.0 0.00 0.00 0.00 48 1021.3
20260501221547 60 314 2.0 3.0 0.00 0.00 0.00 47 1021.3
20260501221047 60 305 2.0 3.0 0.00 0.00 0.00 46 1021.3
20260501220546 60 296 2.0 4.0 0.00 0.00 0.00 46 1021.3
20260501220048 60 298 2.0 3.0 0.00 0.00 0.00 46 1021.3
20260501215546 60 338 3.0 3.0 0.00 0.00 0.00 45 1021.3
20260501215046 60 294 2.0 3.0 0.00 0.00 0.00 45 1021.3
20260501214546 61 303 3.0 3.0 0.00 0.00 0.00 45 1021.3